Regional Weather Roundup
Issued by NWS

Home | Current Version | Previous Version | Text Only | Print | Product List | Glossary On
Versions: 1 2 3 4 5 6 7 8 9 10 11 12 13 14 15 16 17 18 19 20 21 22 23 24 25 26 27 28 29 30 31 32 33 34 35 36 37 38 39 40 41 42 43 44 45 46 47 48 49 50
000
ASUS43 KOAX 201610
RWRNE

WEATHER ROUNDUP FOR NEBRASKA
NATIONAL WEATHER SERVICE OMAHA NE
1000 AM CST MON NOV 20 2017

NOTES: SATELLITE DATA IS BEING USED TO AUGMENT CLOUD COVER ABOVE
       12000 FEET.
       "FAIR" INDICATES FEW OR NO CLOUDS BELOW 12,000 FEET WITH NO
       SIGNIFICANT WEATHER AND/OR OBSTRUCTIONS TO VISIBILITY.


NEZ001>004-019>022-054>056-201700-
NEBRASKA PANHANDLE

CITY           SKY/WX    TMP DP  RH WIND       PRES   REMARKS
SCOTTSBLUFF    CLOUDY    59   3  10 W31G46    29.70S
ALLIANCE       SUNNY     56  10  16 W21G26    29.68S
CHADRON        CLOUDY    45  19  35 SW6       29.67S
GORDON         FAIR      45  16  31 SW9       29.65S
KIMBALL        SUNNY     55   6  13 W18       29.78F
SIDNEY         SUNNY     59   6  12 W16G25    29.77R
$$

NEZ057>060-069>072-079>082-201700-
SOUTHWEST NEBRASKA

CITY           SKY/WX    TMP DP  RH WIND       PRES   REMARKS
NORTH PLATTE   CLOUDY    37  27  67 NW7       29.73F WCI  32
IMPERIAL       SUNNY     49  15  25 W10       29.76S
LEXINGTON      CLOUDY    38  24  55 W3        29.72F
MCCOOK         CLOUDY    38  25  59 W10       29.77F WCI  31
OGALLALA       CLOUDY    39  23  51 W14       29.74S WCI  31
$$

NEZ005>010-023>029-035>040-094-201700-
NORTH CENTRAL NEBRASKA

CITY           SKY/WX    TMP DP  RH WIND       PRES   REMARKS
VALENTINE      CLOUDY    43  19  38 SW10      29.61S
AINSWORTH      CLOUDY    46  19  34 SW10      29.60F
BROKEN BOW     CLOUDY    48  21  34 W13       29.68S
O`NEILL        CLOUDY    44  23  42 W12       29.60F
ORD            CLOUDY    41  30  65 E5        29.64F
THEDFORD       CLOUDY    50  17  27 W14       29.66S
$$

NEZ041-046>049-061>064-073>077-083>087-201700-
SOUTH CENTRAL NEBRASKA

CITY           SKY/WX    TMP DP  RH WIND       PRES   REMARKS
GRAND ISLAND   CLOUDY    47  26  44 SW15      29.70F
AURORA         CLOUDY    41  27  57 SW13      29.70F
HASTINGS       SUNNY     41  26  55 SW9       29.73F
HEBRON         SUNNY     46  23  40 SW17G23   29.77F
HOLDREGE       CLOUDY    43  26  50 W7        29.73S
KEARNEY        CLOUDY    45  24  43 SW9       29.72F
YORK           CLOUDY    43  27  52 SW15      29.72F
$$

NEZ011>018-030>034-042>045-201700-
NORTHEAST NEBRASKA

CITY           SKY/WX    TMP DP  RH WIND       PRES   REMARKS
NORFOLK        CLOUDY    45  24  43 SW9       29.62F
ALBION         CLOUDY    43  26  51 SW5       29.64F
BLAIR            N/A    N/A N/A N/A MISG        N/A
COLUMBUS       CLOUDY    44  26  49 SW13G18   29.68F
FREMONT        SUNNY     45  27  50 SW12G18   29.70F
TEKAMAH        SUNNY     45  27  49 S17       29.68F
WAYNE          CLOUDY    45  24  43 SW6       29.62F
$$

NEZ050>053-065>068-078-088>093-201700-
SOUTHEAST NEBRASKA

CITY           SKY/WX    TMP DP  RH WIND       PRES   REMARKS
LINCOLN        SUNNY     47  24  40 SW18      29.75F
OMAHA EPPLEY   PTSUNNY   48  25  40 SW14      29.73S
BEATRICE       SUNNY     47  25  42 SW20G26   29.78F
FALLS CITY     SUNNY     51  27  39 S15G25    29.81F
NEBRASKA CITY  SUNNY     51  27  40 SW18G28   29.76F
PLATTSMOUTH    SUNNY     49  27  42 S21G28    29.74F
$$

NEZ044-045-051>053-067-201700-
OMAHA AREA

CITY           SKY/WX    TMP DP  RH WIND       PRES   REMARKS
OMAHA EPPLEY   PTSUNNY   48  25  40 SW14      29.73S
BLAIR            N/A    N/A N/A N/A MISG        N/A
FREMONT        SUNNY     45  27  50 SW12G18   29.70F
MILLARD        SUNNY     49  26  41 SW10      29.73S
OFFUTT AFB     SUNNY     48  25  40 SW10G18   29.73F
PLATTSMOUTH    SUNNY     49  27  42 S21G28    29.74F
WAHOO          FAIR      46  26  44 SW16      29.71F
$$




USA.gov is the U.S. government's official web portal to all federal, state and local government web resources and services.